Time,TemperatureF,DewpointF,PressureIn,WindDirection,WindDirectionDegrees,WindSpeedMPH,WindSpeedGustMPH,Humidity,HourlyPrecipIn,Conditions,Clouds,dailyrainin,SoftwareType,DateUTC
2013-03-21 01:33:00,60.0,-99.9,30.00,SE,131,2.0,3.0,-999,-99.99,,,-99.99,,2013-03-21 08:33:00,
2013-03-21 01:43:00,60.0,-99.9,30.00,SE,131,2.0,3.0,-999,-99.99,,,-99.99,,2013-03-21 08:43:00,
2013-03-21 01:52:00,60.0,-99.9,29.98,East,91,2.0,3.0,-999,-99.99,,,-99.99,,2013-03-21 08:52:00,
2013-03-21 02:02:00,60.0,-99.9,29.99,ESE,109,3.0,4.0,-999,-99.99,,,-99.99,,2013-03-21 09:02:00,
2013-03-21 02:11:00,60.0,-99.9,29.99,ESE,109,3.0,4.0,-999,-99.99,,,-99.99,,2013-03-21 09:11:00,
2013-03-21 02:22:00,60.0,-99.9,29.99,ESE,109,3.0,4.0,-999,-99.99,,,-99.99,,2013-03-21 09:22:00,
2013-03-21 02:33:00,60.0,-99.9,29.99,ESE,109,3.0,4.0,-999,-99.99,,,-99.99,,2013-03-21 09:33:00,
2013-03-21 02:43:00,60.0,-99.9,29.99,ESE,109,3.0,4.0,-999,-99.99,,,-99.99,,2013-03-21 09:43:00,
2013-03-21 02:50:00,60.0,-99.9,29.98,East,83,1.0,3.0,-999,-99.99,,,-99.99,,2013-03-21 09:50:00,
2013-03-21 02:53:00,60.0,-99.9,30.00,East,82,2.0,3.0,-999,-99.99,,,-99.99,,2013-03-21 09:53:00,
2013-03-21 03:03:00,60.0,-99.9,29.98,East,83,1.0,3.0,-999,-99.99,,,-99.99,,2013-03-21 10:03:00,
2013-03-21 03:12:00,60.0,-99.9,29.98,East,83,1.0,3.0,-999,-99.99,,,-99.99,,2013-03-21 10:12:00,
2013-03-21 03:23:00,60.0,-99.9,29.98,East,83,1.0,3.0,-999,-99.99,,,-99.99,,2013-03-21 10:23:00,
2013-03-21 03:34:00,60.0,-99.9,29.98,East,83,1.0,3.0,-999,-99.99,,,-99.99,,2013-03-21 10:34:00,
2013-03-21 03:43:00,60.0,-99.9,29.98,East,83,1.0,3.0,-999,-99.99,,,-99.99,,2013-03-21 10:43:00,
2013-03-21 04:03:00,60.0,-99.9,30.01,ENE,68,2.0,3.0,-999,-99.99,,,-99.99,,2013-03-21 11:03:00,
2013-03-21 04:13:00,60.0,-99.9,30.01,ENE,68,2.0,3.0,-999,-99.99,,,-99.99,,2013-03-21 11:13:00,
2013-03-21 04:23:00,60.0,-99.9,30.01,ENE,68,2.0,3.0,-999,-99.99,,,-99.99,,2013-03-21 11:23:00,
2013-03-21 04:33:00,59.0,-99.9,29.93,ESE,107,1.0,2.0,-999,-99.99,,,-99.99,,2013-03-21 11:33:00,
2013-03-21 04:43:00,59.0,-99.9,29.93,ESE,107,1.0,2.0,-999,-99.99,,,-99.99,,2013-03-21 11:43:00,
2013-03-21 04:53:00,59.0,-99.9,29.93,ESE,107,1.0,2.0,-999,-99.99,,,-99.99,,2013-03-21 11:53:00,
2013-03-21 05:03:00,59.0,-99.9,29.96,NNE,23,0.0,2.0,-999,-99.99,,,-99.99,,2013-03-21 12:03:00,
2013-03-21 05:13:00,59.0,-99.9,29.96,NNE,23,0.0,2.0,-999,-99.99,,,-99.99,,2013-03-21 12:13:00,
2013-03-21 05:22:00,59.0,-99.9,29.96,NNE,23,0.0,2.0,-999,-99.99,,,-99.99,,2013-03-21 12:22:00,
2013-03-21 05:33:00,58.0,-99.9,29.94,NNW,338,0.0,0.0,-999,-99.99,,,-99.99,,2013-03-21 12:33:00,
2013-03-21 05:53:00,58.0,-99.9,29.94,NNE,23,0.0,0.0,-999,-99.99,,,-99.99,,2013-03-21 12:53:00,
2013-03-21 06:00:00,58.0,-99.9,29.93,NNE,14,1.0,1.0,-999,-99.99,,,-99.99,,2013-03-21 13:00:00,
2013-03-21 06:03:00,58.0,-99.9,29.96,NNE,23,1.0,2.0,-999,-99.99,,,-99.99,,2013-03-21 13:03:00,
2013-03-21 06:12:00,58.0,-99.9,29.96,NNE,23,1.0,2.0,-999,-99.99,,,-99.99,,2013-03-21 13:12:00,
2013-03-21 06:22:00,58.0,-99.9,29.93,NNE,14,1.0,1.0,-999,-99.99,,,-99.99,,2013-03-21 13:22:00,
2013-03-21 06:33:00,58.0,-99.9,29.93,NNE,14,1.0,1.0,-999,-99.99,,,-99.99,,2013-03-21 13:33:00,
2013-03-21 06:43:00,58.0,-99.9,29.93,NNE,14,1.0,1.0,-999,-99.99,,,-99.99,,2013-03-21 13:43:00,
2013-03-21 06:53:00,58.0,-99.9,29.93,NNE,14,1.0,1.0,-999,-99.99,,,-99.99,,2013-03-21 13:53:00,
2013-03-21 07:12:00,58.0,-99.9,29.96,WSW,249,1.0,1.0,-999,-99.99,,,-99.99,,2013-03-21 14:12:00,
2013-03-21 07:22:00,58.0,-99.9,29.96,WSW,249,1.0,1.0,-999,-99.99,,,-99.99,,2013-03-21 14:22:00,
2013-03-21 07:32:00,57.0,-99.9,29.91,East,85,2.0,2.0,-999,-99.99,,,-99.99,,2013-03-21 14:32:00,
2013-03-21 07:43:00,57.0,-99.9,29.91,East,85,2.0,2.0,-999,-99.99,,,-99.99,,2013-03-21 14:43:00,
2013-03-21 07:52:00,57.0,-99.9,29.93,NE,54,1.0,2.0,-999,-99.99,,,-99.99,,2013-03-21 14:52:00,
2013-03-21 08:04:00,57.0,-99.9,29.95,NE,42,2.0,3.0,-999,-99.99,,,-99.99,,2013-03-21 15:04:00,
2013-03-21 08:13:00,57.0,-99.9,29.93,NE,41,2.0,4.0,-999,-99.99,,,-99.99,,2013-03-21 15:13:00,
2013-03-21 08:22:00,57.0,-99.9,29.93,NE,41,2.0,4.0,-999,-99.99,,,-99.99,,2013-03-21 15:22:00,
2013-03-21 08:33:00,57.0,-99.9,29.94,East,80,2.0,3.0,-999,-99.99,,,-99.99,,2013-03-21 15:33:00,
2013-03-21 08:43:00,57.0,-99.9,29.94,East,80,2.0,3.0,-999,-99.99,,,-99.99,,2013-03-21 15:43:00,
2013-03-21 08:53:00,57.0,-99.9,29.94,East,80,2.0,3.0,-999,-99.99,,,-99.99,,2013-03-21 15:53:00,
2013-03-21 09:03:00,57.0,-99.9,29.94,ENE,70,3.0,6.0,-999,-99.99,,,-99.99,,2013-03-21 16:03:00,
2013-03-21 09:13:00,57.0,-99.9,29.94,ENE,70,3.0,6.0,-999,-99.99,,,-99.99,,2013-03-21 16:13:00,
2013-03-21 09:23:00,58.0,-99.9,29.94,East,79,5.0,9.0,-999,-99.99,,,-99.99,,2013-03-21 16:23:00,
2013-03-21 09:33:00,58.0,-99.9,29.95,SE,135,3.0,9.0,-999,-99.99,,,-99.99,,2013-03-21 16:33:00,
2013-03-21 09:43:00,58.0,-99.9,29.95,SE,135,3.0,9.0,-999,-99.99,,,-99.99,,2013-03-21 16:43:00,
2013-03-21 09:53:00,59.0,-99.9,29.95,SSE,150,5.0,6.0,-999,-99.99,,,-99.99,,2013-03-21 16:53:00,
2013-03-21 10:03:00,59.0,-99.9,29.95,ESE,115,4.0,10.0,-999,-99.99,,,-99.99,,2013-03-21 17:03:00,
2013-03-21 10:12:00,59.0,-99.9,29.95,ESE,115,4.0,10.0,-999,-99.99,,,-99.99,,2013-03-21 17:12:00,
2013-03-21 10:23:00,59.0,-99.9,29.95,ESE,115,4.0,10.0,-999,-99.99,,,-99.99,,2013-03-21 17:23:00,
2013-03-21 10:33:00,61.0,-99.9,29.95,SSW,208,3.0,7.0,-999,-99.99,,,-99.99,,2013-03-21 17:33:00,
2013-03-21 10:43:00,61.0,-99.9,29.95,SSW,208,3.0,7.0,-999,-99.99,,,-99.99,,2013-03-21 17:43:00,
2013-03-21 10:53:00,61.0,-99.9,29.95,SSW,208,3.0,7.0,-999,-99.99,,,-99.99,,2013-03-21 17:53:00,
2013-03-21 11:02:00,62.0,-99.9,29.95,SE,145,2.0,4.0,-999,-99.99,,,-99.99,,2013-03-21 18:02:00,
2013-03-21 11:12:00,62.0,-99.9,29.95,SE,145,2.0,4.0,-999,-99.99,,,-99.99,,2013-03-21 18:12:00,
2013-03-21 11:23:00,63.0,-99.9,29.96,SW,222,3.0,4.0,-999,-99.99,,,-99.99,,2013-03-21 18:23:00,
2013-03-21 11:32:00,64.0,-99.9,29.94,SW,216,4.0,9.0,-999,-99.99,,,-99.99,,2013-03-21 18:32:00,
2013-03-21 11:43:00,65.0,-99.9,29.94,SW,224,5.0,11.0,-999,-99.99,,,-99.99,,2013-03-21 18:43:00,
2013-03-21 11:52:00,65.0,-99.9,29.94,SW,224,5.0,11.0,-999,-99.99,,,-99.99,,2013-03-21 18:52:00,
2013-03-21 12:02:00,65.0,-99.9,29.96,WSW,238,4.0,11.0,-999,-99.99,,,-99.99,,2013-03-21 19:02:00,
2013-03-21 12:12:00,65.0,-99.9,29.96,WSW,238,4.0,11.0,-999,-99.99,,,-99.99,,2013-03-21 19:12:00,
2013-03-21 12:23:00,66.0,-99.9,29.97,WSW,246,7.0,13.0,-999,-99.99,,,-99.99,,2013-03-21 19:23:00,
2013-03-21 12:32:00,66.0,-99.9,29.95,SSW,203,4.0,10.0,-999,-99.99,,,-99.99,,2013-03-21 19:32:00,
2013-03-21 12:43:00,66.0,-99.9,29.95,SSW,203,4.0,10.0,-999,-99.99,,,-99.99,,2013-03-21 19:43:00,
2013-03-21 12:53:00,67.0,-99.9,29.95,SW,233,4.0,11.0,-999,-99.99,,,-99.99,,2013-03-21 19:53:00,
2013-03-21 13:02:00,67.0,-99.9,29.94,SSW,199,5.0,10.0,-999,-99.99,,,-99.99,,2013-03-21 20:02:00,
2013-03-21 13:13:00,67.0,-99.9,29.94,SSW,199,5.0,10.0,-999,-99.99,,,-99.99,,2013-03-21 20:13:00,
2013-03-21 13:23:00,67.0,-99.9,29.96,South,189,5.0,11.0,-999,-99.99,,,-99.99,,2013-03-21 20:23:00,
2013-03-21 13:33:00,68.0,-99.9,29.92,SW,221,5.0,9.0,-999,-99.99,,,-99.99,,2013-03-21 20:33:00,
2013-03-21 13:43:00,68.0,-99.9,29.92,SW,221,5.0,9.0,-999,-99.99,,,-99.99,,2013-03-21 20:43:00,
2013-03-21 13:53:00,68.0,-99.9,29.92,SW,221,5.0,9.0,-999,-99.99,,,-99.99,,2013-03-21 20:53:00,
2013-03-21 14:03:00,68.0,-99.9,29.93,South,187,4.0,13.0,-999,-99.99,,,-99.99,,2013-03-21 21:03:00,
2013-03-21 14:12:00,68.0,-99.9,29.93,South,187,4.0,13.0,-999,-99.99,,,-99.99,,2013-03-21 21:12:00,
2013-03-21 14:23:00,69.0,-99.9,29.90,SSW,192,4.0,10.0,-999,-99.99,,,-99.99,,2013-03-21 21:23:00,
2013-03-21 14:33:00,69.0,-99.9,29.91,SSW,202,5.0,12.0,-999,-99.99,,,-99.99,,2013-03-21 21:33:00,
2013-03-21 14:43:00,69.0,-99.9,29.91,SSW,202,5.0,12.0,-999,-99.99,,,-99.99,,2013-03-21 21:43:00,
2013-03-21 14:53:00,69.0,-99.9,29.92,South,182,5.0,10.0,-999,-99.99,,,-99.99,,2013-03-21 21:53:00,
2013-03-21 15:03:00,70.0,-99.9,29.92,SSW,196,6.0,14.0,-999,-99.99,,,-99.99,,2013-03-21 22:03:00,
2013-03-21 15:13:00,70.0,-99.9,29.92,SSW,196,6.0,14.0,-999,-99.99,,,-99.99,,2013-03-21 22:13:00,
2013-03-21 15:23:00,70.0,-99.9,29.92,SSW,196,6.0,14.0,-999,-99.99,,,-99.99,,2013-03-21 22:23:00,
2013-03-21 15:34:00,70.0,-99.9,29.89,SW,217,5.0,9.0,-999,-99.99,,,-99.99,,2013-03-21 22:34:00,
2013-03-21 15:43:00,70.0,-99.9,29.89,SW,217,5.0,9.0,-999,-99.99,,,-99.99,,2013-03-21 22:43:00,
2013-03-21 15:53:00,70.0,-99.9,29.89,SW,217,5.0,9.0,-999,-99.99,,,-99.99,,2013-03-21 22:53:00,
2013-03-21 16:02:00,70.0,-99.9,29.90,South,187,5.0,11.0,-999,-99.99,,,-99.99,,2013-03-21 23:02:00,
2013-03-21 16:12:00,70.0,-99.9,29.90,South,187,5.0,11.0,-999,-99.99,,,-99.99,,2013-03-21 23:12:00,
2013-03-21 16:22:00,70.0,-99.9,29.88,SSW,194,8.0,15.0,-999,-99.99,,,-99.99,,2013-03-21 23:22:00,
2013-03-21 16:33:00,69.0,-99.9,29.88,South,174,7.0,14.0,-999,-99.99,,,-99.99,,2013-03-21 23:33:00,
2013-03-21 16:43:00,69.0,-99.9,29.88,South,174,7.0,14.0,-999,-99.99,,,-99.99,,2013-03-21 23:43:00,
2013-03-21 16:53:00,69.0,-99.9,29.90,SSE,166,8.0,13.0,-999,-99.99,,,-99.99,,2013-03-21 23:53:00,
2013-03-21 17:03:00,68.0,-99.9,29.90,SW,216,5.0,13.0,-999,-99.99,,,-99.99,,2013-03-22 00:03:00,
2013-03-21 17:13:00,68.0,-99.9,29.90,SW,216,5.0,13.0,-999,-99.99,,,-99.99,,2013-03-22 00:13:00,
2013-03-21 17:22:00,68.0,-99.9,29.90,SW,216,5.0,13.0,-999,-99.99,,,-99.99,,2013-03-22 00:22:00,
2013-03-21 17:32:00,68.0,-99.9,29.90,SW,216,5.0,13.0,-999,-99.99,,,-99.99,,2013-03-22 00:32:00,
2013-03-21 17:42:00,68.0,-99.9,29.90,SW,216,5.0,13.0,-999,-99.99,,,-99.99,,2013-03-22 00:42:00,
2013-03-21 17:52:00,68.0,-99.9,29.90,South,178,6.0,13.0,-999,-99.99,,,-99.99,,2013-03-22 00:52:00,
2013-03-21 18:03:00,68.0,-99.9,29.90,South,180,6.0,11.0,-999,-99.99,,,-99.99,,2013-03-22 01:03:00,
2013-03-21 18:12:00,68.0,-99.9,29.90,South,180,6.0,11.0,-999,-99.99,,,-99.99,,2013-03-22 01:12:00,
2013-03-21 18:22:00,67.0,-99.9,29.89,SSE,155,5.0,10.0,-999,-99.99,,,-99.99,,2013-03-22 01:22:00,
2013-03-21 18:33:00,67.0,-99.9,29.89,SSE,155,5.0,10.0,-999,-99.99,,,-99.99,,2013-03-22 01:33:00,
2013-03-21 18:43:00,67.0,-99.9,29.89,SSE,155,5.0,10.0,-999,-99.99,,,-99.99,,2013-03-22 01:43:00,
2013-03-21 18:53:00,67.0,-99.9,29.87,South,174,5.0,8.0,-999,-99.99,,,-99.99,,2013-03-22 01:53:00,
2013-03-21 19:03:00,67.0,-99.9,29.89,South,188,4.0,6.0,-999,-99.99,,,-99.99,,2013-03-22 02:03:00,
2013-03-21 19:12:00,67.0,-99.9,29.89,South,188,4.0,6.0,-999,-99.99,,,-99.99,,2013-03-22 02:12:00,
2013-03-21 19:22:00,66.0,-99.9,29.87,South,180,2.0,6.0,-999,-99.99,,,-99.99,,2013-03-22 02:22:00,
2013-03-21 19:32:00,66.0,-99.9,29.89,South,172,3.0,5.0,-999,-99.99,,,-99.99,,2013-03-22 02:32:00,
2013-03-21 19:43:00,66.0,-99.9,29.89,South,172,3.0,5.0,-999,-99.99,,,-99.99,,2013-03-22 02:43:00,
2013-03-21 19:53:00,66.0,-99.9,29.90,South,175,4.0,7.0,-999,-99.99,,,-99.99,,2013-03-22 02:53:00,
2013-03-21 20:02:00,66.0,-99.9,29.90,WSW,242,3.0,5.0,-999,-99.99,,,-99.99,,2013-03-22 03:02:00,
2013-03-21 20:10:00,65.0,-99.9,29.89,SSE,152,2.0,5.0,-999,-99.99,,,-99.99,,2013-03-22 03:10:00,
2013-03-21 20:12:00,66.0,-99.9,29.90,WSW,242,3.0,5.0,-999,-99.99,,,-99.99,,2013-03-22 03:12:00,
2013-03-21 20:22:00,66.0,-99.9,29.90,WSW,242,3.0,5.0,-999,-99.99,,,-99.99,,2013-03-22 03:22:00,
2013-03-21 20:33:00,65.0,-99.9,29.89,SSE,152,2.0,5.0,-999,-99.99,,,-99.99,,2013-03-22 03:33:00,
2013-03-21 20:43:00,65.0,-99.9,29.89,SSE,152,2.0,5.0,-999,-99.99,,,-99.99,,2013-03-22 03:43:00,
2013-03-21 20:53:00,65.0,-99.9,29.89,SSE,152,2.0,5.0,-999,-99.99,,,-99.99,,2013-03-22 03:53:00,
2013-03-21 21:04:00,65.0,-99.9,29.89,SSE,152,2.0,5.0,-999,-99.99,,,-99.99,,2013-03-22 04:04:00,
2013-03-21 21:23:00,65.0,-99.9,29.91,South,169,1.0,1.0,-999,-99.99,,,-99.99,,2013-03-22 04:23:00,
2013-03-21 21:30:00,64.0,-99.9,29.89,SSW,203,0.0,1.0,-999,-99.99,,,-99.99,,2013-03-22 04:30:00,
2013-03-21 21:32:00,65.0,-99.9,29.91,ESE,120,2.0,2.0,-999,-99.99,,,-99.99,,2013-03-22 04:32:00,
2013-03-21 21:43:00,65.0,-99.9,29.91,ESE,120,2.0,2.0,-999,-99.99,,,-99.99,,2013-03-22 04:43:00,
2013-03-21 21:53:00,64.0,-99.9,29.89,SSW,203,0.0,1.0,-999,-99.99,,,-99.99,,2013-03-22 04:53:00,
2013-03-21 22:02:00,64.0,-99.9,29.89,SSW,203,0.0,1.0,-999,-99.99,,,-99.99,,2013-03-22 05:02:00,
2013-03-21 22:12:00,64.0,-99.9,29.89,SSW,203,0.0,1.0,-999,-99.99,,,-99.99,,2013-03-22 05:12:00,
2013-03-21 22:22:00,64.0,-99.9,29.89,SSW,203,0.0,1.0,-999,-99.99,,,-99.99,,2013-03-22 05:22:00,
2013-03-21 22:52:00,64.0,-99.9,29.88,SE,129,0.0,0.0,-999,-99.99,,,-99.99,,2013-03-22 05:52:00,
2013-03-21 23:02:00,63.0,-99.9,29.89,SE,133,1.0,2.0,-999,-99.99,,,-99.99,,2013-03-22 06:02:00,
2013-03-21 23:13:00,63.0,-99.9,29.89,SE,133,1.0,2.0,-999,-99.99,,,-99.99,,2013-03-22 06:13:00,
2013-03-21 23:22:00,63.0,-99.9,29.89,ESE,113,2.0,3.0,-999,-99.99,,,-99.99,,2013-03-22 06:22:00,
2013-03-21 23:32:00,63.0,-99.9,29.89,ESE,113,2.0,3.0,-999,-99.99,,,-99.99,,2013-03-22 06:32:00,
2013-03-21 23:43:00,63.0,-99.9,29.89,ESE,113,2.0,3.0,-999,-99.99,,,-99.99,,2013-03-22 06:43:00,
2013-03-21 23:52:00,63.0,-99.9,29.89,ESE,113,2.0,3.0,-999,-99.99,,,-99.99,,2013-03-22 06:52:00,